Ramona, CA

3:56 PM PST on January 16, 2018 (GMT -0800)
Ramona

Weather History for KRNM - November, 2012

Change the Weather History Date:

Monday, November 19, 2012

  Actual Average Record
Temperature  
Mean Temperature 54 °F 54 °F  
Max Temperature 71 °F 70 °F 91 °F (2006)
Min Temperature 36 °F 39 °F 23 °F (1994)
Degree Days  
Heating Degree Days 11 11  
Month to date heating degree days 153 154  
Since 1 July heating degree days 233 273  
Cooling Degree Days 0 0  
Month to date cooling degree days 3 4  
Year to date cooling degree days 1035 848  
Growing Degree Days 2 (Base 50)    
Moisture  
Dew Point 42 °F    
Average Humidity 74    
Maximum Humidity 100    
Minimum Humidity 47    
Precipitation  
Precipitation 0.00 in 0.04 in 0.35 in (1982)
Month to date precipitation 0.40 0.78  
Year to date precipitation 8.22 13.40  
Since 1 July precipitation 1.30  
Snow  
Snow 0.00 in - - ()
Month to date snowfall 0.0  
Year to date snowfall 0.0  
Snow Depth 0.00 in    
Sea Level Pressure  
Sea Level Pressure 30.19 in    
Wind  
Wind Speed 4 mph (WNW)    
Max Wind Speed 18 mph    
Max Gust Speed 32 mph    
Visibility 4 miles    
Events Fog    
T = Trace of Precipitation, MM = Missing Value Source: NWS Daily Summary

Daily Weather History Graph

Daily Weather History Graph

Search for Another Location

Airport or City:

Trip Planner

Search our weather history database for the weather conditions in past years. The results will help you decide how hot, cold, wet, or windy it might be!

Date:

Astronomy

Nov. 19, 2012 Rise Set
Actual Time 6:22 AM PST 4:43 PM PST
Civil Twilight 5:56 AM PST 5:10 PM PST
Nautical Twilight 5:25 AM PST 5:40 PM PST
Astronomical Twilight 4:56 AM PST 6:09 PM PST
Moon 11:35 AM PST (11/19) 11:06 PM PST (11/19)
Length of Visible Light 11h 14m
Length of Day
10h 21m
Waxing Crescent, 42% of the Moon is Illuminated
Nov 19
Waxing Crescent
Nov 20
First Quarter
Nov 28
Full
Dec 6
Last Quarter
Dec 13
New

Hourly Weather History & Observations

Time (PST) Temp. Dew Point Humidity Pressure Visibility Wind Dir Wind Speed Gust Speed Precip Events Conditions
12:08 AM 42.8 °F 42.8 °F 100% 30.19 in 0.8 mi Calm Calm - N/A   Mist
12:10 AM 42.8 °F 42.8 °F 100% 30.19 in 1.2 mi Calm Calm - N/A   Overcast
12:21 AM 42.8 °F 42.8 °F 100% 30.19 in 0.8 mi Calm Calm - N/A   Mist
12:40 AM 42.8 °F 41.0 °F 93% 30.19 in 1.0 mi Calm Calm - N/A   Mist
12:44 AM 42.8 °F 41.0 °F 93% 30.19 in 2.0 mi Calm Calm - N/A   Overcast
12:53 AM 41.0 °F 41.0 °F 100% 30.17 in 7.0 mi Calm Calm - N/A   Overcast
1:07 AM 41.0 °F 41.0 °F 100% 30.18 in 1.8 mi Calm Calm - N/A   Overcast
1:10 AM 42.8 °F 41.0 °F 93% 30.18 in 0.8 mi Calm Calm - N/A   Mist
1:19 AM 41.0 °F 39.2 °F 93% 30.18 in 0.2 mi Calm Calm - N/A Fog Fog
1:53 AM 39.9 °F 39.9 °F 100% 30.17 in 0.2 mi Calm Calm - N/A Fog Fog
2:12 AM 41.0 °F 39.2 °F 93% 30.18 in 1.0 mi Calm Calm - N/A   Mist
2:14 AM 41.0 °F 39.2 °F 93% 30.18 in 3.0 mi Calm Calm - N/A   Mostly Cloudy
2:26 AM 39.2 °F 39.2 °F 100% 30.18 in 2.5 mi Calm Calm - N/A   Scattered Clouds
2:40 AM 39.2 °F 39.2 °F 100% 30.18 in 10.0 mi Calm Calm - N/A   Scattered Clouds
2:49 AM 39.2 °F 39.2 °F 100% 30.18 in 1.5 mi Calm Calm - N/A   Mostly Cloudy
2:53 AM 39.0 °F 39.0 °F 100% 30.17 in 1.0 mi Calm Calm - N/A   Mist
3:08 AM 39.2 °F 39.2 °F 100% 30.18 in 1.2 mi Calm Calm - N/A   Mostly Cloudy
3:11 AM 39.2 °F 39.2 °F 100% 30.18 in 3.0 mi Calm Calm - N/A   Mostly Cloudy
3:25 AM 39.2 °F 39.2 °F 100% 30.17 in 5.0 mi Calm Calm - N/A   Scattered Clouds
3:45 AM 37.4 °F 37.4 °F 100% 30.17 in 2.5 mi Calm Calm - N/A   Partly Cloudy
3:53 AM 37.0 °F 36.0 °F 96% 30.17 in 1.5 mi Calm Calm - N/A   Scattered Clouds
3:56 AM 37.4 °F 35.6 °F 93% 30.17 in 0.8 mi Calm Calm - N/A   Mist
4:13 AM 37.4 °F 37.4 °F 100% 30.17 in 1.2 mi Calm Calm - N/A   Overcast
4:18 AM 39.2 °F 37.4 °F 93% 30.17 in 3.0 mi Calm Calm - N/A   Overcast
4:40 AM 37.4 °F 35.6 °F 93% 30.18 in 4.0 mi Calm Calm - N/A   Scattered Clouds
4:43 AM 37.4 °F 35.6 °F 93% 30.18 in 1.8 mi Calm Calm - N/A   Partly Cloudy
4:48 AM 37.4 °F 37.4 °F 100% 30.18 in 0.8 mi Calm Calm - N/A   Mist
4:53 AM 37.0 °F 36.0 °F 96% 30.18 in 0.5 mi Calm Calm - N/A Fog Fog
5:03 AM 35.6 °F 35.6 °F 100% 30.18 in 1.2 mi Calm Calm - N/A   Scattered Clouds
5:12 AM 37.4 °F 35.6 °F 93% 30.18 in 3.0 mi Calm Calm - N/A   Partly Cloudy
5:25 AM 37.4 °F 35.6 °F 93% 30.19 in 2.5 mi Calm Calm - N/A   Clear
5:37 AM 37.4 °F 35.6 °F 93% 30.19 in 1.0 mi Calm Calm - N/A   Mist
5:44 AM 39.2 °F 37.4 °F 93% 30.19 in 0.5 mi Calm Calm - N/A Fog Fog
5:48 AM 37.4 °F 37.4 °F 100% 30.19 in 1.5 mi Calm Calm - N/A   Mostly Cloudy
5:53 AM 37.9 °F 37.0 °F 97% 30.20 in 10.0 mi Calm Calm - N/A   Mostly Cloudy
6:04 AM 37.4 °F 35.6 °F 93% 30.20 in 10.0 mi Calm Calm - N/A   Scattered Clouds
6:53 AM 37.9 °F 37.0 °F 97% 30.22 in 5.0 mi Calm Calm - N/A   Partly Cloudy
7:53 AM 46.9 °F 46.0 °F 97% 30.24 in 8.0 mi Calm Calm - N/A   Clear
8:53 AM 57.0 °F 48.9 °F 74% 30.24 in 10.0 mi WNW 3.5 mph - N/A   Clear
9:53 AM 62.1 °F 51.1 °F 67% 30.22 in 10.0 mi WSW 5.8 mph - N/A   Clear
10:53 AM 66.9 °F 50.0 °F 54% 30.20 in 10.0 mi WNW 4.6 mph - N/A   Clear
11:53 AM 68.0 °F 48.9 °F 50% 30.17 in 10.0 mi WNW 8.1 mph - N/A   Clear
12:53 PM 70.0 °F 48.0 °F 46% 30.15 in 10.0 mi WNW 11.5 mph - N/A   Clear
1:53 PM 69.1 °F 50.0 °F 51% 30.14 in 10.0 mi West 11.5 mph - N/A   Clear
2:53 PM 66.0 °F 51.1 °F 59% 30.15 in 10.0 mi West 11.5 mph - N/A   Clear
3:53 PM 63.0 °F 52.0 °F 67% 30.16 in 10.0 mi West 9.2 mph - N/A   Clear
4:53 PM 55.0 °F 50.0 °F 83% 30.17 in 10.0 mi West 6.9 mph - N/A   Clear
5:53 PM 52.0 °F 48.9 °F 89% 30.19 in 10.0 mi WNW 3.5 mph - N/A   Clear
6:53 PM 50.0 °F 48.9 °F 96% 30.20 in 10.0 mi Calm Calm - N/A   Clear
7:28 PM 46.4 °F 44.6 °F 93% 30.20 in 1.0 mi Calm Calm - N/A   Clear
7:34 PM 48.2 °F 46.4 °F 93% 30.20 in 0.2 mi Calm Calm - N/A Fog Fog
7:51 PM 48.2 °F 46.4 °F 93% 30.20 in 0.8 mi Calm Calm - N/A   Clear
7:53 PM 48.0 °F 46.9 °F 96% 30.19 in 0.8 mi Calm Calm - N/A   Clear
8:01 PM 46.4 °F 46.4 °F 100% 30.20 in 0.2 mi Calm Calm - N/A Fog Fog
8:19 PM 46.4 °F 44.6 °F 93% 30.20 in 0.5 mi Calm Calm - N/A Fog Fog
8:26 PM 46.4 °F 46.4 °F 100% 30.20 in 1.5 mi Calm Calm - N/A   Mostly Cloudy
8:33 PM 46.4 °F 46.4 °F 100% 30.20 in 2.0 mi Calm Calm - N/A   Scattered Clouds
8:44 PM 44.6 °F 44.6 °F 100% 30.20 in 9.0 mi Calm Calm - N/A   Partly Cloudy
8:53 PM 45.0 °F 44.1 °F 97% 30.19 in 8.0 mi Calm Calm - N/A   Clear
9:09 PM 46.4 °F 44.6 °F 93% 30.20 in 1.0 mi Calm Calm - N/A   Clear
9:15 PM 44.6 °F 44.6 °F 100% 30.19 in 0.5 mi Calm Calm - N/A Fog Fog
9:26 PM 42.8 °F 42.8 °F 100% 30.19 in 2.5 mi Calm Calm - N/A   Clear
9:32 PM 42.8 °F 42.8 °F 100% 30.19 in 2.5 mi Calm Calm - N/A   Partly Cloudy
9:34 PM 42.8 °F 41.0 °F 93% 30.19 in 1.0 mi Calm Calm - N/A   Mist
9:40 PM 42.8 °F 41.0 °F 93% 30.19 in 0.2 mi Calm Calm - N/A Fog Fog
9:53 PM 43.0 °F 42.1 °F 97% 30.18 in 0.2 mi Calm Calm - N/A Fog Fog
10:07 PM 42.8 °F 41.0 °F 93% 30.19 in 1.2 mi Calm Calm - N/A   Mostly Cloudy
10:09 PM 41.0 °F 39.2 °F 93% 30.19 in 0.8 mi Calm Calm - N/A   Mist
10:20 PM 42.8 °F 41.0 °F 93% 30.19 in 0.2 mi Calm Calm - N/A Fog Fog
10:51 PM 41.0 °F 41.0 °F 100% 30.18 in 0.8 mi Calm Calm - N/A   Mist
10:53 PM 39.9 °F 39.9 °F 100% 30.17 in 0.5 mi Calm Calm - N/A Fog Fog
11:01 PM 42.8 °F 39.2 °F 87% 30.18 in 0.2 mi Calm Calm - N/A Fog Fog
11:24 PM 41.0 °F 41.0 °F 100% 30.18 in 1.0 mi Calm Calm - N/A   Mist
11:26 PM 42.8 °F 41.0 °F 93% 30.18 in 3.0 mi Calm Calm - N/A   Overcast
11:53 PM 41.0 °F 39.9 °F 96% 30.16 in 8.0 mi Calm Calm - N/A   Scattered Clouds